Погода в Эребру

Швеция     59°16′48″N   15°12′30″E
темп.,
°C
ветер,
м/с
пор.,
м/с
влажн.,
%
обл.,
%
осадки,
мм/ч
давл.,
гПа
погр.,
м
25 июля, вс
вс2523:00+17ююв115759 0.0 101622
02:00+14ю117266 0.0 101711
05:00+13ююв11778 0.0 101710
08:00+20ююв12575 0.0 1017270
11:00+25юв23375 0.0 10171233
14:00+28вюв34290 0.0 10162010
17:00+28вюв44282 0.0 10152345
20:00+23юв484057 0.0 1016474
26 июля, пн
пн2623:00+15юв237715 0.0 101852
02:00+14в119691 0.0 101812
05:00+14всв1197100 0.0 101818
08:00+19в2471100 0.0 1018395
11:00+25в464552 0.0 10171205
14:00+26вюв4647100 0.1 10161303
17:00+18ссз249183 1.3 101597
20:00+23юв3863100 1.6 1015503
27 июля, вт
вт2723:00+17вюв2894100 1.4 1015165
02:00+16всв229729 1.6 101537
05:00+16св249889 0.0 101480
08:00+20всв378317 0.0 1013322
11:00+28вюв584393 0.1 10112220
14:00+21ю71178100 0.6 1011777
17:00+19з2491100 1.2 1010164
20:00+17св1199100 5.5 101049
28 июля, ср
ср2823:00+17всв2499100 1.1 1009146
02:00+17св1199100 1.2 100842
05:00+17ю0099100 0.0 100736
08:00+18зсз1295100 0.2 1007240
11:00+19зюз2490100 0.6 1006399
14:00+25з355153 0.7 10051779
17:00+25з46442 0.0 10041623
20:00+22зюз485916 0.0 1004647
29 июля, чт
чт2923:00+16юз28879 0.0 1004240
02:00+16юз3119559 0.0 1004447
05:00+15юз3119413 0.0 1003524
08:00+17юз4108098 0.0 10031009
11:00+21зюз710491 0.1 10031541
14:00+22зюз711420 0.1 10031717
17:00+22зюз610440 0.0 10031684
20:00+19зюз510560 0.0 10031174